Waarnemingen

Advertentie
Mijn weer
Leutkirch-Herlazhofen, Duitsland (10945): temperatuur & dauwpunt: 20.09.2017 14:00:00 - 26.09.2017 14:00:00 (CEST)Leutkirch-Herlazhofen, Duitsland (10945): temperatuur 5cm & temperatuur -5cm: 20.09.2017 14:00:00 - 26.09.2017 14:00:00 (CEST)Leutkirch-Herlazhofen, Duitsland (10945): temperatuur -20cm & temperatuur -100cm: 20.09.2017 14:00:00 - 26.09.2017 14:00:00 (CEST)Leutkirch-Herlazhofen, Duitsland (10945): windsnelheid & windstoten: 20.09.2017 14:00:00 - 26.09.2017 14:00:00 (CEST)Leutkirch-Herlazhofen, Duitsland (10945): windrichting: 20.09.2017 14:00:00 - 26.09.2017 14:00:00 (CEST)Leutkirch-Herlazhofen, Duitsland (10945): luchtdruk: 20.09.2017 14:00:00 - 26.09.2017 14:00:00 (CEST)Leutkirch-Herlazhofen, Duitsland (10945): zicht: 20.09.2017 14:00:00 - 26.09.2017 14:00:00 (CEST)Leutkirch-Herlazhofen, Duitsland (10945): Zonneschijnduur: 20.09.2017 14:00:00 - 26.09.2017 14:00:00 (CEST)Leutkirch-Herlazhofen, Duitsland (10945): neerslag: 20.09.2017 14:00:00 - 26.09.2017 14:00:00 (CEST)
Datum & Tijd tt [°C] td [°C] tt 5cm [°C] tt -5cm [°C] tt -20cm [°C] tt -100cm [°C] ff [km/u] ff [kn] fx [km/u] fx [kn] dd ppp [hPa] vv [km] sd [min] rr [mm]
26.09.2017 14:00:00 18,1 9,1 22,6 19,3 13,1 14,2 4 2 9 5 NNW 1019,2 31 44 0,0
26.09.2017 13:00:00 16,6 8,0 20,1 17,9 12,7 14,2 8 4 - - NW 1019,9 26 58 0,0
26.09.2017 12:00:00 15,6 9,9 19,1 16,0 12,4 14,2 - - - - - 1020,3 - - -
26.09.2017 11:00:00 - - - - - - - - - - - - - - -
26.09.2017 10:00:00 - - - - - - - - - - - - - - -
26.09.2017 09:00:00 - - - - - - - - - - - - - - -
26.09.2017 08:00:00 - - - - - - - - - - - - - - -
26.09.2017 07:00:00 - - - - - - - - - - - - - - -
26.09.2017 06:00:00 - - - - - - - - - - - - - - -
26.09.2017 05:00:00 - - - - - - - - - - - - - - -
26.09.2017 04:00:00 - - - - - - - - - - - - - - -
26.09.2017 03:00:00 - - - - - - - - - - - - - - -
26.09.2017 02:00:00 - - - - - - - - - - - - - - -
26.09.2017 01:00:00 - - - - - - - - - - - - - - -
26.09.2017 00:00:00 - - - - - - - - - - - - - - -
25.09.2017 23:00:00 - - - - - - - - - - - - - - -
25.09.2017 22:00:00 - - - - - - - - - - - - - - -
25.09.2017 21:00:00 - - - - - - - - - - - - - - -
25.09.2017 20:00:00 - - - - - - - - - - - - - - -
25.09.2017 19:00:00 - - - - - - - - - - - - - - -
25.09.2017 18:00:00 - - - - - - - - - - - - - - -
25.09.2017 17:00:00 - - - - - - - - - - - - - - -
25.09.2017 16:00:00 - - - - - - - - - - - - - - -
25.09.2017 15:00:00 - - - - - - - - - - - - - - -
25.09.2017 14:00:00 - - - - - - - - - - - - - - -
25.09.2017 13:00:00 - - - - - - - - - - - - - - -
25.09.2017 12:00:00 - - - - - - - - - - - - - - -
25.09.2017 11:00:00 - - - - - - - - - - - - - - -
25.09.2017 10:00:00 - - - - - - - - - - - - - - -
25.09.2017 09:00:00 - - - - - - - - - - - - - - -
25.09.2017 08:00:00 - - - - - - - - - - - - - - -
25.09.2017 07:00:00 - - - - - - - - - - - - - - -
25.09.2017 06:00:00 - - - - - - - - - - - - - - -
25.09.2017 05:00:00 - - - - - - - - - - - - - - -
25.09.2017 04:00:00 - - - - - - - - - - - - - - -
25.09.2017 03:00:00 - - - - - - - - - - - - - - -
25.09.2017 02:00:00 - - - - - - - - - - - - - - -
25.09.2017 01:00:00 - - - - - - - - - - - - - - -
25.09.2017 00:00:00 - - - - - - - - - - - - - - -
24.09.2017 23:00:00 - - - - - - - - - - - - - - -
24.09.2017 22:00:00 - - - - - - - - - - - - - - -
24.09.2017 21:00:00 - - - - - - - - - - - - - - -
24.09.2017 20:00:00 - - - - - - - - - - - - - - -
24.09.2017 19:00:00 - - - - - - - - - - - - - - -
24.09.2017 18:00:00 - - - - - - - - - - - - - - -
24.09.2017 17:00:00 - - - - - - - - - - - - - - -
24.09.2017 16:00:00 - - - - - - - - - - - - - - -
24.09.2017 15:00:00 - - - - - - - - - - - - - - -
24.09.2017 14:00:00 16,1 9,2 19,3 17,0 12,7 14,2 6 3 16 9 ZW 1019,9 23 37 0,0
24.09.2017 13:00:00 14,3 9,6 16,4 15,1 12,4 14,2 9 5 15 8 WZW 1020,8 20 19 0,0
24.09.2017 12:00:00 13,7 10,2 15,3 14,1 12,2 14,2 10 5 17 9 W 1021,3 16 6 0,0
24.09.2017 11:00:00 13,2 10,5 14,2 13,3 12,1 14,2 12 6 19 10 Z 1021,4 14 6 0,0
24.09.2017 10:00:00 11,9 9,7 12,4 11,6 12,2 14,2 4 2 5 3 ONO 1021,6 3,9 3 0,0
24.09.2017 09:00:00 10,2 9,1 10,1 10,5 12,2 14,2 2 1 7 4 O 1021,5 2,8 0 0,0
24.09.2017 08:00:00 8,7 8,2 8,5 10,2 12,3 14,2 5 3 9 5 OZO 1021,8 1,7 0 0,0
24.09.2017 07:00:00 8,3 8,0 7,7 10,2 12,5 14,2 4 2 6 3 ZZO 1021,2 1,7 0 0,0
24.09.2017 06:00:00 8,0 7,6 6,4 10,5 12,6 14,2 4 2 10 5 ZW 1021,3 2,1 0 0,0
24.09.2017 05:00:00 8,8 8,4 8,1 10,8 12,7 14,2 3 2 7 4 O 1021,1 2,0 0 0,0
24.09.2017 04:00:00 9,1 8,6 8,7 11,0 12,8 14,2 6 3 7 4 WZW 1021,0 3,0 0 0,0
24.09.2017 03:00:00 9,1 8,4 8,7 11,1 12,9 14,2 6 3 11 6 WZW 1021,0 3,2 0 0,0
24.09.2017 02:00:00 9,3 8,7 8,8 11,3 13,0 14,2 4 2 7 4 ZZW 1021,5 3,1 0 0,0
24.09.2017 01:00:00 9,4 8,7 9,0 11,3 13,2 14,2 2 1 5 3 ZZO 1021,5 4,7 0 0,0
24.09.2017 00:00:00 8,7 8,1 8,2 11,3 13,4 14,2 0 0 3 2 N 1021,9 4,8 0 0,0
23.09.2017 23:00:00 8,5 7,8 6,7 11,6 13,6 14,2 2 1 6 4 ZZO 1022,0 5 0 0,0
23.09.2017 22:00:00 7,8 7,2 7,0 12,1 13,8 14,2 6 4 8 5 NW 1022,7 4,7 0 0,0
23.09.2017 21:00:00 9,0 8,2 6,1 13,1 13,9 14,2 4 2 7 4 ZZO 1022,1 6 0 0,0
23.09.2017 20:00:00 9,5 8,2 6,6 14,4 13,9 14,2 2 1 9 5 ZW 1021,8 8 0 0,0
23.09.2017 19:00:00 14,3 9,4 10,7 15,9 13,8 14,2 6 3 13 7 ONO 1020,2 20 35 0,0
23.09.2017 18:00:00 16,2 9,5 16,5 17,1 13,6 14,3 7 4 16 9 NO 1019,5 17 60 0,0
23.09.2017 17:00:00 16,6 10,5 18,0 17,9 13,2 14,3 9 5 21 12 N 1019,5 15 51 0,0
23.09.2017 16:00:00 17,4 9,5 20,1 18,5 12,8 14,3 9 5 16 9 NNO 1019,5 17 52 0,0
23.09.2017 15:00:00 17,0 9,0 19,5 18,4 12,3 14,3 10 5 19 10 ONO 1019,9 20 60 0,0
23.09.2017 14:00:00 16,5 9,4 19,0 17,5 11,8 14,3 8 5 18 10 ONO 1020,4 15 60 0,0
23.09.2017 13:00:00 15,5 9,2 17,4 16,5 11,4 14,3 9 5 15 8 NO 1021,2 16 43 0,0
23.09.2017 12:00:00 15,5 8,9 18,9 15,3 11,0 14,3 5 3 11 6 N 1021,9 14 60 0,0
23.09.2017 11:00:00 14,5 8,6 17,2 12,7 10,8 14,3 4 2 6 3 WNW 1022,3 36 53 0,0
23.09.2017 10:00:00 12,1 7,8 11,4 10,3 10,8 14,3 3 1 6 4 NO 1023,1 46 53 0,0
23.09.2017 09:00:00 9,7 7,4 9,7 8,0 11,0 14,3 0 0 3 1 N 1023,5 21 60 0,0
23.09.2017 08:00:00 5,0 4,7 3,7 7,3 11,1 14,3 0 0 6 4 N 1024,9 6 11 0,0
23.09.2017 07:00:00 5,0 4,6 1,7 7,6 11,3 14,3 4 2 6 3 ZW 1024,8 8 0 0,0
23.09.2017 06:00:00 5,4 5,1 4,1 7,8 11,5 14,3 3 2 4 2 ZZO 1024,9 20 0 0,0
23.09.2017 05:00:00 4,7 4,4 1,7 8,0 11,7 14,3 3 2 4 2 OZO 1025,0 3,7 0 0,0
23.09.2017 04:00:00 5,3 5,0 2,1 8,4 11,9 14,3 0 0 5 3 N 1025,1 0,4 0 0,0
23.09.2017 03:00:00 5,8 5,4 3,1 8,8 12,1 14,3 0 0 4 2 N 1025,2 6 0 0,0
23.09.2017 02:00:00 6,0 5,6 4,0 9,0 12,3 14,3 2 1 6 3 ZZW 1025,2 22 0 0,0
23.09.2017 01:00:00 5,6 5,3 2,5 9,5 12,6 14,3 0 0 6 3 N 1025,0 14 0 0,0
23.09.2017 00:00:00 7,2 6,4 4,5 10,1 12,8 14,3 5 3 11 6 ZZO 1024,2 34 0 0,0
22.09.2017 23:00:00 7,5 6,7 4,2 10,8 12,9 14,4 3 2 5 3 ZO 1024,0 25 0 0,0
22.09.2017 22:00:00 7,9 6,7 5,1 11,6 13,1 14,4 3 2 6 3 OZO 1023,5 38 0 0,0
22.09.2017 21:00:00 8,4 7,1 6,2 12,6 13,1 14,4 4 2 6 3 Z 1023,4 33 0 0,0
22.09.2017 20:00:00 9,4 7,6 6,7 13,7 13,1 14,4 4 2 7 4 ZZO 1022,7 46 2 0,0
22.09.2017 19:00:00 13,8 8,9 10,2 15,1 12,9 14,4 4 2 11 6 ZZW 1021,0 58 57 0,0
22.09.2017 18:00:00 17,1 6,7 17,1 16,0 12,6 14,4 9 5 16 9 ZW 1020,0 56 60 0,0
22.09.2017 17:00:00 17,5 7,2 18,4 16,4 12,3 14,4 13 7 23 12 WZW 1019,6 44 60 0,0
22.09.2017 16:00:00 17,5 8,5 19,6 16,6 11,9 14,4 15 8 24 13 WZW 1019,6 36 60 0,0
22.09.2017 15:00:00 16,9 7,3 19,0 16,3 11,5 14,4 18 10 24 13 WZW 1019,8 34 60 0,0
22.09.2017 14:00:00 16,6 9,9 19,0 15,8 11,1 14,4 16 9 29 16 WZW 1019,8 23 60 0,0
22.09.2017 13:00:00 15,4 8,6 18,0 14,4 10,7 14,4 17 9 24 13 WZW 1020,2 18 57 0,0
22.09.2017 12:00:00 14,5 8,7 16,7 13,6 10,3 14,4 15 8 22 12 WZW 1020,5 24 60 0,0
22.09.2017 11:00:00 13,4 7,1 16,0 11,5 10,2 14,4 9 5 16 8 ZW 1021,0 24 60 0,0
22.09.2017 10:00:00 11,4 6,6 12,0 8,9 10,2 14,4 8 4 10 6 Z 1021,6 70 60 0,0
22.09.2017 09:00:00 8,0 5,7 8,5 6,7 10,4 14,4 3 1 5 3 ZO 1022,1 41 60 0,0
22.09.2017 08:00:00 3,3 2,8 2,2 5,8 10,6 14,5 3 2 6 3 ZZO 1023,2 15 26 0,0
22.09.2017 07:00:00 2,4 2,2 -0,3 6,0 10,8 14,5 6 3 7 4 ZO 1023,2 9 0 0,0
22.09.2017 06:00:00 2,8 2,6 -0,3 6,3 11,0 14,5 4 2 8 4 ZO 1023,1 6 0 0,0
22.09.2017 05:00:00 3,1 2,8 -0,4 6,6 11,3 14,5 3 1 5 3 ZO 1023,1 7 0 0,0
22.09.2017 04:00:00 2,9 2,8 -0,2 7,0 11,5 14,5 3 2 4 2 ZZW 1023,3 8 0 0,0
22.09.2017 03:00:00 2,9 2,7 0,2 7,4 11,8 14,5 3 1 4 2 ZZO 1023,4 0,2 0 0,0
22.09.2017 02:00:00 3,2 3,1 0,7 7,9 12,1 14,5 3 2 5 3 ONO 1023,5 2,1 0 0,0
22.09.2017 01:00:00 3,6 3,4 0,7 8,4 12,3 14,5 3 2 5 3 ZO 1022,9 8 0 0,0
22.09.2017 00:00:00 4,0 3,5 1,0 9,1 12,6 14,5 2 1 4 2 ZO 1022,7 8 0 0,0
21.09.2017 23:00:00 4,3 3,8 1,7 9,9 12,8 14,5 3 2 4 2 W 1022,6 7 0 0,0
21.09.2017 22:00:00 4,9 4,4 2,1 10,8 13,0 14,5 3 1 8 5 NW 1022,3 12 0 0,0
21.09.2017 21:00:00 7,1 5,4 4,0 12,0 13,1 14,5 4 2 6 3 ONO 1021,5 24 0 0,0
21.09.2017 20:00:00 10,0 6,7 5,9 13,3 13,0 14,5 3 1 11 6 ONO 1020,4 35 6 0,0
21.09.2017 19:00:00 13,3 7,2 11,2 14,7 12,9 14,6 6 4 15 8 NO 1019,3 50 60 0,0
21.09.2017 18:00:00 15,4 7,2 15,9 15,8 12,6 14,6 8 5 18 10 NO 1018,7 46 60 0,0
21.09.2017 17:00:00 15,8 4,5 17,1 16,4 12,2 14,6 11 6 19 10 ONO 1018,8 46 60 0,0
21.09.2017 16:00:00 16,0 4,5 17,9 16,6 11,8 14,6 10 6 23 13 ONO 1018,8 49 60 0,0
21.09.2017 15:00:00 15,4 4,7 17,5 16,4 11,3 14,6 13 7 21 11 ONO 1019,4 45 60 0,0
21.09.2017 14:00:00 14,8 4,8 16,7 15,6 10,9 14,6 13 7 28 15 ONO 1020,0 20 60 0,0
21.09.2017 13:00:00 13,8 5,7 15,8 14,4 10,5 14,6 13 7 24 13 ONO 1020,9 19 60 0,0
21.09.2017 12:00:00 13,0 5,3 15,3 13,1 10,1 14,6 13 7 22 12 ONO 1021,4 23 60 0,0
21.09.2017 11:00:00 11,3 7,0 13,8 11,1 10,0 14,6 5 3 9 5 NW 1022,0 38 60 0,0
21.09.2017 10:00:00 7,6 3,8 9,8 8,4 10,0 14,6 2 1 5 3 NNW 1023,1 44 60 0,0
21.09.2017 09:00:00 4,4 2,0 6,0 6,2 10,2 14,6 2 1 5 3 NNO 1024,2 24 60 0,0
21.09.2017 08:00:00 1,2 0,9 -0,1 5,4 10,5 14,6 4 2 5 3 O 1025,0 10 27 0,0
21.09.2017 07:00:00 0,6 0,5 -2,0 5,7 10,7 14,6 2 1 4 2 ONO 1025,3 0,6 0 0,0
21.09.2017 06:00:00 1,3 1,0 -0,2 6,1 10,9 14,6 0 0 4 2 N 1025,1 9 0 0,0
21.09.2017 05:00:00 1,5 1,3 -1,1 6,6 11,2 14,6 0 0 4 2 N 1025,2 4,0 0 0,0
21.09.2017 04:00:00 1,7 1,6 -0,5 7,1 11,4 14,7 2 1 4 2 ZO 1025,4 0,6 0 0,0
21.09.2017 03:00:00 2,3 2,1 -0,1 7,7 11,6 14,7 2 1 8 4 NNW 1025,4 0,3 0 0,0
21.09.2017 02:00:00 3,3 3,0 0,5 8,4 11,8 14,7 0 0 5 3 N 1025,3 12 0 0,0
21.09.2017 01:00:00 4,9 4,6 2,1 9,1 11,9 14,7 3 2 6 3 ONO 1024,8 8 0 0,0
21.09.2017 00:00:00 6,1 5,1 5,0 9,6 12,1 14,7 4 2 10 5 ZW 1024,5 26 0 0,0
20.09.2017 23:00:00 6,6 5,5 6,1 9,9 12,2 14,7 8 4 12 6 ZZO 1024,4 25 0 0,0
20.09.2017 22:00:00 6,5 5,6 5,8 10,3 12,3 14,7 9 5 12 7 ZZO 1024,2 17 0 0,0
20.09.2017 21:00:00 6,8 6,0 5,7 10,9 12,4 14,7 5 3 9 5 ZO 1024,2 16 0 0,0
20.09.2017 20:00:00 7,2 6,5 4,9 11,8 12,4 14,7 3 1 7 4 Z 1023,7 11 0 0,0
20.09.2017 19:00:00 9,1 6,9 8,1 12,7 12,3 14,7 6 3 13 7 ZZW 1022,9 35 40 0,0
20.09.2017 18:00:00 10,7 6,6 12,4 13,2 12,1 14,7 8 4 17 9 ZZW 1022,3 43 54 0,0
20.09.2017 17:00:00 10,3 6,5 11,9 13,1 12,0 14,7 8 4 14 8 Z 1022,4 69 8 0,0
20.09.2017 16:00:00 9,8 5,7 10,8 13,2 11,8 14,7 12 6 18 10 ZW 1022,6 70 2 0,0
20.09.2017 15:00:00 10,1 7,4 12,2 12,7 11,6 14,7 13 7 21 11 ZZW 1022,7 38 0 0,5
20.09.2017 14:00:00 9,5 5,6 9,2 12,7 11,5 14,8 14 8 22 12 ZW 1023,0 9 0 0,4

tt = temperatuur
td = dauwpunt
tt 5cm = temperatuur 5cm
tt -5cm = temperatuur -5cm
tt -20cm = temperatuur -20cm
tt -100cm = temperatuur -100cm
ff = windsnelheid
fx = windstoten
dd = windrichting
ppp = luchtdruk
vv = zicht
sd = Zonneschijnduur
rr = neerslag

Weerstations in de omgeving